Theta_e
335 333 321 317 305 306 299 301 307 308 313 319 319 321 319 321 316 315 335 339 342 343 350 353 355 354 354 353 352 351 351 350 350 350 349 348 346 344 342 342 340 337 337 337 337 336 336 336 336
333 320 319 314 301 296 298 305 307 309 317 322 322 318 320 320 324 327 330 340 342 347 351 348 355 354 354 353 351 350 350 350 349 348 348 347 346 344 342 340 338 338 338 338 338 337 337 338 338
323 318 312 309 300 296 298 305 308 312 317 321 320 322 321 321 328 330 336 341 343 347 349 351 356 354 354 353 352 351 350 349 348 348 347 346 346 344 343 342 340 338 339 338 338 339 340 340 341
320 317 312 302 300 302 303 309 314 313 315 321 320 318 322 329 331 333 340 341 341 344 347 350 355 355 354 354 352 351 350 349 349 348 348 347 346 345 344 343 343 340 341 340 340 341 341 342 343
319 312 301 300 299 304 309 311 313 311 313 316 319 316 319 327 333 338 341 342 341 343 346 346 356 355 354 354 353 352 350 349 349 348 348 347 346 345 345 344 342 341 342 342 342 343 344 344 345
307 309 299 295 298 303 308 312 312 311 314 316 318 318 320 328 335 340 342 344 343 344 348 346 354 354 354 354 353 352 350 350 349 349 348 348 347 346 345 345 344 343 343 344 344 345 345 344 344
306 305 297 299 299 301 305 311 308 310 315 316 322 317 322 325 333 342 342 344 345 345 347 347 349 353 354 353 352 352 350 350 349 348 348 347 347 346 346 345 345 345 346 347 346 347 347 345 344
309 307 299 300 298 299 309 313 315 316 314 320 322 315 317 325 335 342 342 341 341 343 345 345 348 349 348 348 353 352 351 350 349 349 348 348 347 347 346 344 345 346 346 346 347 347 347 346 345
310 300 297 298 299 301 310 309 315 317 316 316 319 319 321 325 336 339 338 338 340 340 342 344 343 348 349 347 348 352 352 350 349 349 349 346 342 343 342 343 346 347 347 347 347 347 349 346 344
307 301 300 303 304 305 307 309 311 312 313 313 316 319 321 322 324 328 334 335 337 339 341 340 343 346 348 345 348 349 347 345 344 344 346 344 343 344 341 343 345 347 347 348 348 348 348 346 342
310 303 305 304 305 307 307 308 311 309 309 314 314 316 319 320 322 323 325 328 331 337 339 341 343 346 346 345 345 345 348 347 348 347 350 348 344 343 342 341 342 343 346 343 346 347 345 344 342
304 309 309 309 307 307 305 308 308 309 310 315 316 319 319 319 321 321 322 324 326 329 333 341 344 344 348 346 344 344 344 345 344 345 349 346 344 343 341 339 340 342 340 342 345 345 346 346 343
306 306 311 312 312 311 312 311 311 312 316 319 321 321 320 320 321 323 325 325 327 326 330 333 342 347 348 347 345 344 344 343 343 342 346 345 340 343 341 341 339 340 340 340 342 345 345 344 343
306 307 308 310 313 314 312 312 314 315 319 317 317 317 319 319 320 322 324 325 327 329 330 333 334 346 346 345 347 345 345 343 342 341 343 347 342 344 340 340 338 338 338 338 339 343 343 343 342
302 299 302 304 308 309 312 307 308 315 316 314 315 316 317 319 320 321 324 329 329 330 334 335 337 338 347 348 346 345 343 342 341 341 343 343 344 342 342 337 338 338 340 340 340 341 342 341 340
297 298 294 302 302 304 306 299 309 313 312 312 313 315 316 318 320 322 323 328 330 330 330 334 327 329 344 347 345 344 342 342 341 341 341 342 343 343 341 337 337 339 338 338 338 339 338 338 339
295 291 294 297 304 302 302 300 307 311 311 311 313 314 315 316 319 323 323 324 329 332 334 334 332 330 341 346 344 345 345 342 342 342 341 342 342 341 340 337 339 340 337 336 338 339 337 340 339
289 290 293 294 300 301 300 300 305 309 308 309 311 312 314 315 317 321 323 325 326 330 334 335 332 333 339 340 344 343 343 343 343 342 342 342 342 341 341 339 339 339 336 335 338 336 339 338 337
294 292 292 296 300 299 299 300 303 306 307 307 309 310 312 314 317 319 322 325 327 332 333 337 332 334 332 336 337 338 338 339 339 341 343 343 343 342 341 339 339 339 335 338 337 339 337 335 334
292 291 291 294 298 297 299 298 302 303 304 306 307 308 310 312 314 318 321 324 327 329 331 334 331 332 335 337 340 341 341 338 337 341 344 345 343 341 340 341 339 338 335 338 339 338 334 332 330
291 290 291 291 295 297 295 294 298 302 304 305 307 308 309 310 311 316 317 322 325 327 330 332 332 331 337 341 342 342 341 335 335 338 338 340 342 342 342 341 340 339 340 339 340 337 334 327 326
286 292 292 292 291 287 296 287 296 299 300 303 305 306 307 309 311 313 316 319 323 324 326 326 330 333 337 342 341 341 338 335 338 339 342 341 344 343 343 342 342 342 340 337 338 335 332 328 327
288 293 291 291 290 290 290 287 292 298 297 300 302 304 307 310 310 310 312 315 317 321 321 326 334 336 338 341 342 340 341 340 341 341 341 343 344 343 342 342 343 342 339 336 334 336 334 332 329
293 291 291 291 289 283 288 287 289 293 297 300 303 305 306 308 309 310 312 314 315 318 324 334 338 339 339 340 342 343 341 338 338 340 340 340 340 340 342 341 340 340 339 335 336 337 335 332 331
290 288 281 279 280 280 289 287 290 297 299 300 301 305 307 308 309 311 313 313 316 325 332 335 339 338 340 341 340 341 341 341 341 341 338 337 336 337 339 341 340 338 338 338 336 336 334 333 331
288 287 282 276 278 281 288 284 290 299 301 303 304 306 307 309 311 311 312 313 320 329 332 336 339 338 339 339 338 339 341 339 338 339 337 336 336 337 340 339 339 338 337 336 336 334 333 334 328
288 284 290 284 286 283 286 289 295 297 298 301 302 306 311 314 315 316 323 326 329 330 331 339 339 338 338 338 337 338 338 338 336 338 338 337 339 337 338 338 337 337 336 336 336 334 335 334 326
291 292 284 285 278 277 284 286 289 295 296 301 303 306 310 317 320 320 326 326 329 332 338 340 339 337 337 337 337 336 337 337 336 337 337 337 337 336 336 335 335 335 336 337 337 335 335 332 326
288 287 288 288 286 281 282 286 297 297 299 299 302 304 309 318 319 323 324 327 331 335 336 336 336 335 335 335 335 335 334 335 336 336 336 336 336 335 334 334 335 336 335 335 335 335 333 332 326
290 288 289 284 282 285 284 285 298 299 300 301 302 303 306 320 320 322 325 327 332 334 334 335 335 334 334 334 334 334 335 335 335 334 335 334 333 334 334 335 334 334 333 334 332 332 331 327 323
Wind_Speed
7 4 1 2 4 2 4 5 4 5 3 3 5 6 18 4 12 3 4 12 9 19 20 22 22 21 20 20 20 19 18 18 17 16 15 15 14 13 12 11 13 13 13 12 11 10 8 7 7
6 4 1 1 4 5 5 5 9 8 4 5 8 5 8 9 4 3 4 11 12 18 18 21 23 21 21 21 21 20 20 20 18 17 17 17 16 15 14 12 12 12 12 12 10 9 8 7 5
8 0 3 4 4 9 5 6 8 1 9 4 2 4 3 4 6 3 3 15 13 16 18 17 23 22 22 22 21 19 19 19 19 18 19 19 17 16 15 14 13 12 11 11 10 9 7 6 5
3 3 1 6 12 9 9 4 2 8 2 4 3 4 2 2 3 5 12 15 14 15 16 18 22 22 22 21 21 20 20 19 19 19 19 19 18 17 16 15 13 13 11 10 10 8 7 6 5
1 1 5 5 14 7 9 9 9 14 7 5 7 4 2 2 0 8 16 15 14 14 15 18 22 22 19 18 19 20 20 19 20 20 19 18 18 18 17 16 15 14 13 12 10 9 8 7 7
3 2 4 14 11 7 10 9 9 11 11 5 6 2 2 2 6 9 12 12 11 13 12 14 17 15 16 18 19 19 19 19 19 19 18 18 18 18 18 17 16 15 13 12 11 10 8 6 5
5 4 8 7 6 11 14 11 14 11 7 7 3 6 0 4 3 8 10 9 7 8 11 11 14 15 16 17 18 18 18 17 18 19 19 18 17 17 17 17 16 15 13 12 11 9 8 6 5
4 4 9 10 12 12 5 3 2 12 6 1 2 4 4 2 7 7 8 8 7 7 10 11 12 14 16 15 17 17 17 18 19 19 18 18 18 17 16 14 15 15 14 13 11 10 8 7 7
5 8 13 18 13 7 1 7 2 2 6 3 1 2 4 5 5 8 6 7 7 8 11 12 14 14 14 14 14 16 18 19 18 17 18 16 12 14 15 14 14 14 14 14 13 10 8 8 7
10 10 16 9 13 7 11 9 5 4 5 5 6 1 3 6 4 4 7 9 10 12 13 12 13 14 13 12 14 15 15 14 14 15 15 13 13 12 13 13 15 14 14 13 11 10 8 8 4
11 20 21 15 14 12 16 15 8 7 12 13 7 1 12 16 7 4 5 6 10 11 8 13 13 13 15 14 11 9 9 10 10 16 13 13 11 11 10 8 8 9 12 7 10 9 8 7 5
15 20 22 15 9 6 15 14 15 17 21 11 11 11 12 15 13 7 10 12 14 10 13 11 13 14 16 11 12 11 11 11 11 13 15 11 9 11 10 8 10 9 7 8 8 6 7 8 8
24 22 16 22 16 11 8 22 19 21 20 18 20 17 18 14 15 12 10 12 11 10 12 13 12 13 12 14 11 12 13 12 12 13 15 13 13 11 11 10 10 7 9 9 8 8 7 8 9
10 20 24 19 15 15 18 27 19 17 13 17 16 19 17 15 14 12 12 13 11 10 13 13 10 11 12 14 15 13 11 13 13 12 13 16 13 11 12 11 11 9 8 8 7 6 6 7 8
15 19 13 16 23 19 9 24 35 21 21 21 23 21 21 22 18 17 15 14 12 11 12 12 11 11 13 15 15 12 11 13 12 12 14 16 15 14 13 12 11 10 8 8 6 6 5 7 7
11 12 23 25 12 10 17 30 35 21 21 26 24 22 20 20 18 17 15 13 11 11 12 13 11 12 15 14 12 11 11 11 11 10 10 16 16 16 14 11 11 9 8 7 7 6 6 7 8
13 21 27 19 22 17 18 28 27 23 15 18 16 17 17 17 16 14 14 13 12 11 12 13 10 13 14 13 10 11 11 10 10 9 10 14 15 16 14 11 8 9 8 7 7 6 7 7 7
19 15 17 21 14 19 23 34 26 19 16 18 17 18 19 20 21 16 13 13 11 12 12 11 9 10 11 7 6 7 8 9 8 9 10 14 12 15 12 9 10 9 6 7 6 7 6 6 6
18 11 20 18 7 15 26 30 24 21 24 24 22 20 20 21 19 17 15 15 15 13 12 11 8 5 5 5 7 8 10 8 8 8 12 14 12 12 12 8 10 10 10 10 8 7 8 7 4
19 19 14 11 12 8 14 22 16 16 21 21 21 22 22 22 21 19 17 15 15 14 13 11 8 7 8 8 6 4 7 6 6 8 10 12 12 12 11 10 10 11 8 8 9 10 4 4 3
18 21 21 14 12 15 13 24 24 22 21 22 23 22 22 22 22 19 19 16 14 13 13 10 8 7 9 10 8 7 8 5 6 7 7 9 12 13 12 11 10 11 10 9 9 8 7 5 5
20 11 12 16 14 14 6 13 15 14 17 20 20 19 21 22 20 21 19 18 16 16 11 9 8 7 10 14 11 14 7 8 6 8 8 8 11 11 12 13 11 11 8 8 7 6 6 6 6
13 18 14 8 10 11 20 13 19 13 20 18 15 18 21 23 21 21 21 19 19 14 11 8 6 7 10 13 12 10 8 6 7 8 11 10 9 10 10 11 10 9 7 6 8 8 8 7 5
14 14 21 18 14 17 18 11 23 18 23 20 18 20 17 15 15 18 18 15 15 9 7 5 7 9 12 11 11 11 12 10 10 10 9 8 7 7 9 9 7 8 7 8 7 7 8 7 7
8 11 9 12 12 20 9 14 24 7 5 3 9 12 16 15 16 14 13 12 10 7 6 6 9 10 11 11 10 10 12 12 14 14 10 10 8 6 7 8 8 7 7 6 5 6 6 7 6
12 15 9 15 13 16 13 14 10 8 16 11 7 9 12 15 12 13 12 9 7 6 7 9 11 12 11 11 11 11 13 10 10 9 9 7 6 6 8 7 7 6 5 5 5 5 5 6 6
15 10 18 8 2 8 12 17 17 17 19 11 12 10 14 16 15 12 5 4 6 7 10 12 14 13 13 12 11 12 11 12 11 11 9 8 7 7 8 7 6 6 6 6 5 5 6 6 5
8 4 11 8 6 8 10 17 9 1 6 6 11 14 18 19 17 6 2 5 6 9 11 12 13 14 14 14 12 11 11 11 12 11 11 9 8 8 8 8 7 6 5 6 6 5 6 7 3
9 6 5 10 11 5 2 3 2 11 11 10 13 15 19 18 11 2 4 8 10 12 13 13 14 15 14 14 13 13 12 13 12 11 10 9 9 9 9 8 7 6 5 4 4 5 5 7 5
3 6 9 8 19 11 10 5 2 8 11 14 17 20 19 12 8 2 5 9 12 13 13 14 14 15 13 13 14 13 12 11 10 10 10 10 10 8 8 7 6 5 4 3 4 4 5 6 6
Wind_Direction
180 165 240 218 203 243 233 239 267 231 213 143 160 182 186 174 169 212 39 167 141 153 165 168 169 171 169 169 171 172 172 174 174 172 168 165 167 164 162 161 159 157 152 150 150 146 141 137 132
145 134 198 163 215 219 226 213 227 240 294 292 181 195 190 214 213 272 162 166 159 157 165 172 172 175 173 177 176 176 176 176 177 174 171 169 171 169 164 166 169 165 160 159 156 154 153 153 147
144 50 206 212 203 219 244 197 225 194 294 271 304 228 188 185 180 235 134 159 155 167 170 173 173 178 179 182 177 180 183 178 177 179 175 173 174 169 167 171 174 174 171 167 165 164 164 174 175
173 151 141 235 230 232 243 24 95 328 300 246 270 259 256 242 164 162 146 156 160 168 174 176 178 183 185 183 179 183 188 182 182 183 183 176 174 170 171 175 174 175 180 182 179 176 184 201 209
82 174 229 238 235 245 261 263 277 293 284 248 232 218 247 265 110 141 155 166 166 171 182 185 189 187 185 183 184 186 191 188 187 188 186 181 179 175 175 176 177 179 187 190 190 195 200 218 242
159 296 216 237 239 233 251 266 277 271 288 290 211 226 223 274 178 160 164 171 172 174 184 196 193 189 187 191 194 189 193 191 195 193 188 187 187 182 179 178 180 184 191 197 199 203 212 219 236
227 194 230 240 254 262 254 249 251 263 269 244 233 191 214 243 201 150 164 167 161 174 190 191 195 197 199 198 199 200 196 196 198 199 192 191 190 188 188 182 181 186 192 202 206 208 215 226 241
211 236 228 235 231 250 237 224 246 227 228 323 223 176 87 9 142 141 159 161 158 179 201 198 196 199 207 206 207 204 205 202 202 202 198 192 191 192 193 188 190 189 193 203 207 212 220 223 232
155 228 236 233 212 227 184 231 243 302 264 295 220 128 56 41 147 149 149 181 192 201 207 205 201 204 208 209 213 208 210 211 207 206 202 195 198 195 197 199 192 197 199 205 210 213 221 220 228
199 219 229 223 219 223 242 243 256 284 231 260 248 203 69 49 72 236 197 208 213 223 213 208 207 209 210 214 212 212 214 217 215 210 207 207 202 201 199 200 201 205 208 211 212 215 217 222 233
210 230 229 233 232 229 251 256 251 257 265 250 253 20 329 316 332 333 245 274 270 265 234 207 205 206 208 214 211 211 210 208 211 213 204 205 200 201 199 198 199 208 211 216 207 206 213 220 232
245 232 238 244 230 229 245 267 253 245 250 263 274 293 285 285 290 257 280 289 284 274 259 228 210 208 212 210 214 215 213 207 208 206 201 199 199 200 201 200 201 204 199 211 215 211 212 220 225
233 242 242 245 244 241 270 265 255 264 261 267 275 274 270 262 251 266 260 270 275 267 269 251 220 217 211 212 218 220 218 216 218 207 202 201 201 200 194 201 204 195 198 203 212 215 211 215 225
235 240 246 247 240 239 244 261 267 245 247 270 281 281 276 262 260 249 241 249 245 248 258 257 234 223 213 216 216 215 216 216 212 212 209 204 199 197 196 201 207 204 205 210 219 221 223 227 232
260 258 245 237 238 235 209 269 253 255 256 255 262 265 272 276 279 260 251 235 241 239 244 249 247 232 222 221 222 219 216 213 215 211 206 203 200 200 200 205 207 210 201 202 204 208 222 240 229
241 235 241 230 218 233 193 252 259 255 257 263 267 267 266 266 268 270 269 269 257 247 241 253 247 236 224 224 219 220 218 216 215 209 201 202 200 198 204 206 213 201 200 205 207 212 220 234 235
221 240 231 249 229 228 202 244 257 253 249 257 258 264 271 275 260 244 244 245 249 244 250 258 241 232 227 226 220 220 214 213 214 205 197 196 198 201 210 209 195 194 198 202 204 207 227 229 232
233 241 258 252 231 222 225 242 248 264 266 255 260 264 267 269 270 278 259 254 249 250 252 252 249 232 227 224 212 217 209 210 205 197 197 188 200 203 203 196 188 186 186 191 195 208 212 243 254
263 304 260 251 207 234 226 246 245 249 255 262 262 263 264 267 272 269 267 268 262 256 248 242 259 254 198 193 195 214 210 193 200 198 186 194 202 193 194 186 183 188 194 196 189 211 212 214 219
244 250 253 280 265 256 250 260 257 258 260 265 268 268 267 272 271 268 266 265 263 266 265 267 259 251 210 206 198 190 173 190 177 187 192 195 190 181 182 186 188 188 187 180 190 200 181 210 185
239 240 242 249 280 277 270 271 262 254 255 260 258 262 266 264 270 269 266 261 262 259 257 262 262 242 214 197 169 130 129 128 174 184 183 186 177 172 172 185 180 177 188 187 195 193 192 210 197
245 229 237 237 237 251 211 275 265 257 256 254 259 257 260 264 260 258 263 260 253 260 269 256 257 215 197 180 184 173 171 161 183 179 174 164 169 167 167 173 179 176 181 188 184 186 191 201 209
252 230 239 248 248 264 251 271 266 248 257 255 268 261 257 255 264 265 262 262 262 265 265 267 230 192 181 183 184 174 172 144 149 155 146 146 148 156 163 172 173 174 189 178 180 180 199 202 219
229 218 216 228 239 246 240 243 276 256 261 260 256 255 265 278 278 264 260 265 264 266 253 215 180 169 171 173 180 179 152 148 146 141 139 143 136 138 163 165 162 175 180 184 188 193 197 201 207
231 200 188 203 208 235 216 212 245 340 99 320 296 292 289 290 287 276 273 269 262 239 202 183 169 154 152 161 164 154 144 147 140 144 146 143 143 161 153 161 167 169 182 183 183 195 202 207 201
222 219 222 214 202 232 204 221 243 248 269 268 291 302 294 296 299 288 277 258 235 193 167 176 153 139 147 151 142 134 137 137 137 141 140 139 153 153 155 158 157 162 178 182 190 197 209 203 204
225 224 233 296 266 216 196 244 268 267 281 277 298 333 332 323 315 298 270 223 183 165 168 159 141 137 142 137 131 128 131 135 130 128 132 144 140 139 147 152 157 175 189 193 199 219 218 208 183
254 258 205 212 231 212 212 234 247 128 234 42 20 2 345 336 326 277 168 145 150 151 141 137 135 135 134 130 127 127 124 121 123 130 134 138 133 134 144 148 160 175 183 199 208 212 212 201 167
269 219 243 255 240 287 271 151 161 110 69 20 8 354 347 343 341 352 145 146 138 136 132 129 129 129 128 127 124 122 122 123 127 128 132 132 132 141 145 156 167 174 180 181 205 215 197 184 141
257 296 241 247 225 238 286 272 107 104 28 4 350 341 341 347 340 11 147 147 139 131 131 132 132 128 128 125 121 117 118 120 123 129 131 136 135 139 148 158 160 167 173 195 213 216 175 159 130